DateTime,F1_A11,F1_S11,BsB_S11,BsG_S11,BsR_S11,BbsB_S11,BbsG_S11,BbsR_S11,BaB_A11,BaG_A11,BaR_A11,T_S11,U_S11,P_S11,T1_A11
2016-10-22T00:00:00Z,0000380,21000600,,,,,,,,,,27.5,00.0,0657.8,34.7
2016-10-22T00:01:00Z,0000380,21000600,,,,,,,,,,27.5,00.0,0657.8,34.7
2016-10-22T00:02:00Z,0000380,21000600,,,,,,,,,,27.5,00.0,0657.8,34.7
2016-10-22T00:03:00Z,0000380,61000600,,,,,,,,,,27.6,00.0,0657.8,34.7
2016-10-22T00:04:00Z,0000380,41000600,0002.60,0001.88,0001.31,0001.08,0000.13,0000.50,0000.19,-000.01,0000.36,27.5,00.0,0658.8,34.7
2016-10-22T00:05:00Z,0000380,01000600,0001.87,0002.20,0001.17,0000.92,0000.13,0000.14,0000.51,0000.21,0000.32,27.4,00.0,0658.8,34.7
2016-10-22T00:06:00Z,0000380,01000600,0001.93,0002.66,0001.09,0000.64,-000.05,0000.24,-000.02,0000.26,-000.17,27.5,00.0,0658.8,34.7
2016-10-22T00:07:00Z,0000380,01000600,0003.06,0002.08,0001.63,-000.56,-000.05,0000.37,0000.29,0000.10,0000.03,27.5,00.0,0658.8,34.7
2016-10-22T00:08:00Z,0000380,01000600,0001.57,0002.34,0001.25,0000.35,-000.19,0000.19,-000.09,0000.05,0000.19,27.5,00.0,0658.7,34.7
2016-10-22T00:09:00Z,0000380,01000600,0002.72,0001.73,0001.89,0000.05,-000.19,-000.11,0000.14,0000.04,-000.12,27.4,00.0,0658.7,34.7
2016-10-22T00:10:00Z,0000380,01000600,0001.75,0002.18,0000.97,0000.50,0000.02,0000.27,0000.03,0000.11,0000.05,27.4,00.0,0658.7,34.7
2016-10-22T00:11:00Z,0000380,01000600,0001.14,0001.55,0001.01,0000.23,-000.19,0000.76,0000.36,0000.29,0000.50,27.4,00.0,0658.7,34.7
2016-10-22T00:12:00Z,0000380,01000600,0003.10,0002.30,0001.49,0000.80,-000.05,0000.24,-000.03,0000.07,-000.35,27.4,00.0,0658.7,34.7
2016-10-22T00:13:00Z,0000380,01000600,0002.93,0002.18,0001.36,0000.74,-000.11,0000.13,0000.11,0000.02,0000.42,27.4,00.0,0658.7,34.7
2016-10-22T00:14:00Z,0000380,01000600,0002.89,0002.72,0001.70,0000.45,-000.06,0000.63,0000.27,0000.14,-000.26,27.3,00.0,0658.7,34.7
2016-10-22T00:15:00Z,0000380,01000600,0002.54,0001.77,0001.90,0000.29,0000.18,0000.61,0000.21,0000.26,0000.23,27.3,00.0,0658.7,34.7
2016-10-22T00:16:00Z,0000380,01000600,0002.64,0002.90,0002.24,0000.51,0000.29,0000.39,-000.15,-000.00,0000.13,27.3,00.0,0658.8,34.7
2016-10-22T00:17:00Z,0000380,01000600,0002.15,0001.45,0001.10,0000.66,0000.26,-000.10,0000.50,0000.21,0000.15,27.3,00.0,0658.7,34.7
2016-10-22T00:18:00Z,0000380,01000600,0001.53,0001.99,0001.35,0000.21,-000.13,0000.13,-000.21,0000.10,0000.34,27.2,00.0,0658.7,34.7
2016-10-22T00:19:00Z,0000380,01000600,0002.46,0001.70,0001.51,0000.72,0000.06,0000.06,0000.26,-000.08,-000.11,27.2,00.0,0658.7,34.7
2016-10-22T00:20:00Z,0000380,01000600,0002.25,0002.62,0001.83,0000.13,-000.11,0000.58,0000.17,0000.39,0000.26,27.2,00.0,0658.8,34.7
2016-10-22T00:21:00Z,0000380,01000600,0002.33,0001.57,0001.53,0000.32,0000.18,0000.63,0000.24,-000.03,-000.21,27.2,00.0,0658.8,34.7
2016-10-22T00:22:00Z,0000380,01000600,0002.74,0002.03,0000.96,0000.47,-000.06,0000.48,0000.11,0000.20,0000.25,27.2,00.0,0658.8,34.7
2016-10-22T00:23:00Z,0000380,01000600,0002.48,0001.78,0001.07,0000.21,-000.13,0000.14,-000.07,0000.09,0000.23,27.2,00.0,0658.7,34.7
2016-10-22T00:24:00Z,0000380,01000600,0002.80,0002.25,0001.69,0000.08,-000.30,0000.24,0000.05,0000.02,0000.00,27.2,00.0,0658.7,34.7
2016-10-22T00:25:00Z,0000380,01000600,0001.83,0002.46,0001.50,0000.69,-000.02,0000.42,0000.17,0000.14,0000.10,27.2,00.0,0658.7,34.7
2016-10-22T00:26:00Z,0000380,01000600,0002.41,0001.80,0001.51,0000.08,0000.02,0000.50,0000.30,0000.18,0000.17,27.2,00.0,0658.8,34.7
2016-10-22T00:27:00Z,0000380,01000600,0002.72,0001.90,0001.25,0000.85,0000.13,-000.02,-000.05,-000.09,-000.06,27.2,00.0,0658.7,34.7
2016-10-22T00:28:00Z,0000380,01000600,0002.24,0002.14,0001.11,0000.42,-000.08,0000.14,0000.15,0000.02,-000.04,27.3,00.0,0658.8,34.7
2016-10-22T00:29:00Z,0000380,01000600,0002.20,0002.45,0001.45,0000.80,-000.40,0000.39,-000.11,0000.20,-000.41,27.2,00.0,0658.7,34.7
2016-10-22T00:30:00Z,0000380,01000600,0002.80,0002.19,0001.27,0000.45,0000.50,0000.56,0000.08,-000.13,0000.12,27.2,00.0,0658.8,34.7
2016-10-22T00:31:00Z,0000380,01000600,0001.70,0001.86,0001.51,-000.08,-000.38,0000.11,0000.21,0000.02,0000.12,27.2,00.0,0658.8,34.7
2016-10-22T00:32:00Z,0000380,01000600,0001.73,0002.62,0001.19,0000.55,0000.19,0000.40,0000.03,-000.04,0000.01,27.2,00.0,0658.8,34.7
2016-10-22T00:33:00Z,0000380,01000600,0001.73,0001.89,0001.85,0000.77,-000.24,0000.48,-000.08,0000.11,0000.15,27.1,00.0,0658.8,34.7
2016-10-22T00:34:00Z,0000380,01000600,0002.53,0002.31,0001.17,0000.72,0000.14,0000.42,0000.16,0000.13,0000.13,27.1,00.0,0658.8,34.7
2016-10-22T00:35:00Z,0000380,01000600,0002.46,0002.65,0001.71,0000.87,0000.32,0000.40,0000.20,0000.16,0000.25,27.1,00.0,0658.9,34.7
2016-10-22T00:36:00Z,0000380,01000600,0001.82,0001.87,0000.98,-000.06,0000.10,0000.31,0000.15,0000.23,0000.01,27.0,00.0,0658.9,34.7
2016-10-22T00:37:00Z,0000380,01000600,0002.48,0001.69,0001.39,0000.34,-000.32,0000.50,0000.23,0000.15,0000.11,27.1,00.0,0658.9,34.7
2016-10-22T00:38:00Z,0000380,01000600,0001.92,0002.14,0001.61,0000.34,-000.03,0000.08,-000.15,0000.01,0000.01,27.1,00.0,0658.8,34.7
2016-10-22T00:39:00Z,0000380,01000600,0001.54,0002.92,0001.73,-000.31,-000.06,0000.24,0000.18,0000.22,0000.14,27.2,00.0,0658.8,34.7
2016-10-22T00:40:00Z,0000380,01000600,0002.82,0001.61,0001.48,0000.61,-000.45,0000.71,-000.01,-000.02,-000.01,27.2,00.0,0658.8,34.7
2016-10-22T00:41:00Z,0000380,01000600,0001.27,0002.03,0000.30,0000.39,0000.46,-000.03,-000.03,0000.01,0000.23,27.2,00.0,0658.8,34.7
2016-10-22T00:42:00Z,0000380,01000600,0001.98,0001.35,0000.96,0000.11,-000.08,0000.42,0000.31,0000.10,-000.14,27.3,00.0,0658.8,34.7
2016-10-22T00:43:00Z,0000380,01000600,0001.45,0001.48,0001.62,0000.56,-000.03,-000.47,0000.02,-000.03,0000.11,27.3,00.0,0658.8,34.7
2016-10-22T00:44:00Z,0000380,01000600,0002.42,0002.20,0001.00,0000.26,-000.02,0000.31,0000.03,0000.11,-000.12,27.3,00.0,0658.9,34.7
2016-10-22T00:45:00Z,0000380,01000600,0002.17,0000.66,0001.46,-000.32,0000.22,-000.11,0000.05,0000.01,-000.12,27.3,00.0,0658.9,34.7
2016-10-22T00:46:00Z,0000380,01000600,0001.94,0001.81,0000.97,0000.50,0000.64,0000.19,0000.11,0000.01,0000.01,27.3,00.0,0658.9,34.7
2016-10-22T00:47:00Z,0000380,01000600,0001.60,0001.81,0001.50,0000.48,-000.48,0000.48,-000.00,-000.05,0000.15,27.2,00.0,0658.9,34.7
2016-10-22T00:48:00Z,0000380,01000600,0002.02,0001.68,0001.15,0000.34,0000.18,-000.05,0000.02,0000.12,0000.18,27.2,00.0,0658.9,34.7
2016-10-22T00:49:00Z,0000380,01000600,0000.83,0001.60,0000.96,0000.16,0000.34,0000.47,0000.30,0000.12,0000.29,27.2,00.0,0658.9,34.7
2016-10-22T00:50:00Z,0000380,01000600,0002.17,0001.42,0001.24,0000.77,-000.29,0000.05,0000.11,-000.10,-000.02,27.2,00.0,0658.8,34.7
2016-10-22T00:51:00Z,0000380,01000600,0001.44,0001.72,0001.00,-000.18,-000.08,-000.16,0000.15,0000.19,0000.10,27.2,00.0,0658.8,34.7
2016-10-22T00:52:00Z,0000380,01000600,0002.60,0002.01,0000.85,0000.37,-000.13,0000.35,0000.03,0000.21,-000.09,27.2,00.0,0658.8,34.7
2016-10-22T00:53:00Z,0000380,01000600,0002.33,0001.21,0001.58,0000.23,0000.10,0000.14,0000.05,0000.38,0000.09,27.2,00.1,0658.8,34.7
2016-10-22T00:54:00Z,0000380,01000600,0001.55,0001.98,0001.29,0000.02,-000.18,0000.84,0000.27,0000.00,0000.04,27.2,00.1,0658.8,34.7
2016-10-22T00:55:00Z,0000380,01000600,0001.20,0001.56,0000.65,-000.29,0000.00,0000.03,-000.08,0000.09,0000.19,27.3,00.1,0658.9,34.7
2016-10-22T00:56:00Z,0000380,01000600,0002.67,0001.38,0001.18,-000.10,0000.21,0000.06,-000.20,-000.01,0000.03,27.3,00.0,0658.8,34.7
2016-10-22T00:57:00Z,0000380,41000600,,,,,,,,,,,,0659.0,34.7
2016-10-22T00:58:00Z,0000380,61000600,,,,,,,,,,27.3,00.0,0657.9,34.7
2016-10-22T00:59:00Z,0000380,21000600,,,,,,,,,,27.3,00.0,0657.8,34.7
2016-10-22T01:00:00Z,0000380,21000600,,,,,,,,,,27.3,00.0,0657.8,34.8
2016-10-22T01:01:00Z,0000380,21000600,,,,,,,,,,27.3,00.0,0657.8,34.8
2016-10-22T01:02:00Z,0000380,21000600,,,,,,,,,,27.3,00.0,0657.9,34.8
2016-10-22T01:03:00Z,0000380,61000600,,,,,,,,,,27.4,00.0,0657.9,34.8
2016-10-22T01:04:00Z,0000380,41000600,0001.26,0001.51,0000.75,0000.00,0000.51,-000.13,-000.14,-000.06,-000.22,27.4,00.0,0658.9,34.8
2016-10-22T01:05:00Z,0000380,01000600,0002.57,0000.99,0000.74,-000.06,0000.26,-000.06,0000.34,0000.09,0000.16,27.3,00.0,0658.9,34.8
2016-10-22T01:06:00Z,0000380,01000600,0002.40,0000.92,0001.44,-000.76,0000.38,0000.32,-000.03,0000.35,0000.33,27.3,00.0,0658.9,34.8
2016-10-22T01:07:00Z,0000380,01000600,0001.26,0000.88,0001.04,-000.27,-000.02,0000.03,-000.05,0000.07,0000.03,27.3,00.0,0658.9,34.8
2016-10-22T01:08:00Z,0000380,01000600,0000.61,0001.21,0001.36,0000.52,0000.03,-000.08,0000.20,-000.00,-000.08,27.4,00.0,0658.8,34.8
2016-10-22T01:09:00Z,0000380,01000600,0001.96,0001.62,0001.39,0000.10,0000.22,-000.10,0000.09,0000.13,-000.15,27.4,00.0,0658.9,34.8
2016-10-22T01:10:00Z,0000380,01000600,0002.00,0001.44,0001.26,-000.14,0000.24,-000.13,0000.07,0000.03,0000.54,27.5,00.0,0658.9,34.8
2016-10-22T01:11:00Z,0000380,01000600,0002.23,0001.65,0001.48,0000.58,0000.53,-000.05,0000.03,0000.20,-000.14,27.5,00.0,0658.9,34.8
2016-10-22T01:12:00Z,0000380,01000600,0001.60,0001.38,0001.04,0000.64,0000.29,0000.16,0000.26,0000.13,0000.18,27.5,00.0,0659.0,34.8
2016-10-22T01:13:00Z,0000380,01000600,0001.55,0001.31,0001.25,-000.02,-000.08,0000.34,0000.06,-000.11,0000.06,27.5,00.0,0658.9,34.8
2016-10-22T01:14:00Z,0000380,01000600,0001.46,0001.30,0001.30,-000.27,0000.13,0000.29,0000.23,0000.04,-000.11,27.6,00.0,0658.9,34.8
2016-10-22T01:15:00Z,0000380,01000600,0001.11,0001.19,0001.40,0000.34,0000.13,0000.18,0000.19,0000.24,0000.11,27.5,00.0,0659.0,34.8
2016-10-22T01:16:00Z,0000380,01000600,0001.86,0000.59,0001.20,-000.68,-000.16,-000.06,-000.22,-000.01,-000.17,27.5,00.0,0659.0,34.8
2016-10-22T01:17:00Z,0000380,01000600,0001.28,0001.74,0001.00,0000.16,0000.14,-000.08,0000.18,0000.13,0000.33,27.5,00.0,0659.0,34.8
2016-10-22T01:18:00Z,0000380,01000600,0001.28,0001.19,0000.50,-000.02,0000.43,-000.08,0000.08,0000.13,-000.08,27.5,00.0,0658.9,34.8
2016-10-22T01:19:00Z,0000380,01000600,0002.42,0000.83,0001.46,-000.03,0000.30,0000.34,0000.10,-000.20,-000.05,27.5,00.0,0659.0,34.8
2016-10-22T01:20:00Z,0000380,01000600,0001.18,0000.86,0000.87,-000.32,0000.42,-000.02,-000.03,0000.28,0000.19,27.5,00.0,0659.0,34.8
2016-10-22T01:21:00Z,0000380,01000600,0001.52,0000.53,0001.06,0000.06,0000.34,0000.24,0000.05,-000.19,-000.15,27.5,00.0,0659.0,34.8
2016-10-22T01:22:00Z,0000380,01000600,0001.24,0001.57,0001.27,-000.03,-000.19,0000.35,-000.05,0000.23,0000.35,27.5,00.0,0659.1,34.8
2016-10-22T01:23:00Z,0000380,01000600,0001.36,0001.23,0000.92,0000.06,0000.08,-000.02,-000.01,-000.16,-000.06,27.5,00.0,0659.0,34.8
2016-10-22T01:24:00Z,0000380,01000600,0001.12,0001.18,0000.99,0000.08,0000.37,0000.11,0000.05,0000.10,0000.14,27.5,00.0,0659.1,34.8
2016-10-22T01:25:00Z,0000380,01000600,0001.42,0001.09,0001.15,-000.13,0000.21,0000.06,0000.21,0000.15,-000.17,27.6,00.0,0659.1,34.8
2016-10-22T01:26:00Z,0000380,01000600,0001.98,0000.92,0000.94,0000.03,-000.32,-000.03,-000.03,0000.19,0000.01,27.6,00.0,0659.1,34.8
2016-10-22T01:27:00Z,0000380,01000600,0001.03,0000.67,0001.48,-000.34,-000.02,0000.18,0000.16,0000.17,0000.16,27.6,00.0,0659.1,34.8
2016-10-22T01:28:00Z,0000380,01000600,0001.80,0001.03,0001.49,-000.16,0000.29,0000.26,-000.03,-000.06,-000.01,27.7,00.0,0659.2,34.8
2016-10-22T01:29:00Z,0000380,01000600,0001.80,0001.35,0001.19,-000.14,0000.46,0000.79,0000.21,-000.08,0000.12,27.7,00.0,0659.2,34.8
2016-10-22T01:30:00Z,0000380,01000600,0001.45,0001.34,0001.60,0000.89,0000.08,-000.10,0000.11,0000.20,0000.09,27.7,00.0,0659.2,34.8
2016-10-22T01:31:00Z,0000380,01000600,0000.44,0002.24,0001.10,0000.02,0000.38,-000.02,0000.15,0000.03,0000.24,27.7,00.0,0659.3,34.8
2016-10-22T01:32:00Z,0000380,01000600,0002.06,0000.88,0000.92,-000.23,-000.03,0000.13,0000.07,0000.24,-000.20,27.7,00.0,0659.3,34.8
2016-10-22T01:33:00Z,0000380,01000600,0001.43,0001.52,0001.49,0000.66,0000.32,-000.13,0000.41,-000.01,0000.21,27.7,00.0,0659.2,34.8
2016-10-22T01:34:00Z,0000380,01000600,0001.95,0000.73,0002.07,0000.29,-000.08,0000.23,0000.07,0000.15,0000.23,27.6,00.0,0659.2,34.8
2016-10-22T01:35:00Z,0000380,01000600,0000.41,0001.14,0001.51,-000.14,0000.08,0000.06,-000.08,0000.09,-000.32,27.6,00.0,0659.3,34.8
2016-10-22T01:36:00Z,0000380,01000600,0001.00,0000.92,0000.99,0000.14,0000.26,0000.24,-000.02,0000.07,0000.34,27.6,00.0,0659.2,34.8
2016-10-22T01:37:00Z,0000380,01000600,0002.08,0000.95,0001.45,-000.11,-000.08,0000.21,0000.07,0000.07,-000.04,27.6,00.0,0659.2,34.8
2016-10-22T01:38:00Z,0000380,01000600,0000.27,0000.85,0000.98,-000.18,0000.02,0000.31,0000.06,0000.07,0000.03,27.6,00.0,0659.2,34.8
2016-10-22T01:39:00Z,0000380,01000600,0001.97,0002.07,0001.13,0000.23,0000.05,-000.19,0000.09,0000.06,0000.22,27.7,00.0,0659.1,34.8
2016-10-22T01:40:00Z,0000380,01000600,0000.98,0000.92,0000.62,0000.69,0000.56,-000.23,0000.05,0000.12,0000.15,27.7,00.0,0659.1,34.8
2016-10-22T01:41:00Z,0000380,01000600,0002.08,0002.12,0001.85,-000.02,-000.06,0000.26,0000.02,-000.03,-000.26,27.7,00.0,0659.2,34.8
2016-10-22T01:42:00Z,0000380,01000600,-000.08,0001.05,0001.17,-000.63,0000.42,0000.27,0000.30,0000.25,-000.09,27.8,00.0,0659.2,34.8
2016-10-22T01:43:00Z,0000380,01000600,0001.47,0000.65,0001.45,0000.34,0000.35,-000.11,0000.13,0000.16,0000.44,27.8,00.0,0659.2,34.8
2016-10-22T01:44:00Z,0000380,01000600,0002.13,0001.97,0001.52,-000.29,-000.08,0000.00,0000.07,-000.03,0000.27,27.9,00.0,0659.2,34.8
2016-10-22T01:45:00Z,0000380,01000600,0001.17,0001.11,0001.36,-000.37,0000.32,0000.27,0000.05,0000.13,-000.54,27.9,00.0,0659.2,34.9
2016-10-22T01:46:00Z,0000380,01000600,0001.91,0000.91,0001.25,0000.16,-000.03,-000.13,0000.17,0000.06,0000.22,27.9,00.0,0659.2,34.9
2016-10-22T01:47:00Z,0000380,01000600,0000.84,0001.47,0000.95,0000.08,0000.37,0000.21,0000.20,0000.09,-000.12,27.9,00.0,0659.3,34.9
2016-10-22T01:48:00Z,0000380,01000600,0001.96,0001.26,0001.21,-000.06,-000.29,-000.13,-000.13,-000.01,0000.17,27.8,00.0,0659.3,34.9
2016-10-22T01:49:00Z,0000380,01000600,0001.13,0001.14,0001.39,-000.24,-000.02,0000.27,0000.08,0000.03,-000.25,27.8,00.0,0659.3,34.9
2016-10-22T01:50:00Z,0000380,01000600,0001.76,0001.73,0001.67,-000.06,0000.06,0000.15,0000.10,-000.02,0000.32,27.8,00.0,0659.3,34.9
2016-10-22T01:51:00Z,0000380,01000600,0002.61,0001.32,0001.02,-000.66,0000.26,-000.08,0000.10,0000.01,0000.05,27.8,00.0,0659.3,34.9
2016-10-22T01:52:00Z,0000380,01000600,0001.72,0001.74,0001.17,-000.55,0000.18,0000.11,-000.08,0000.10,0000.13,27.8,00.0,0659.2,34.9
2016-10-22T01:53:00Z,0000380,01000600,0002.38,0001.53,0001.13,-000.23,0000.02,0000.11,0000.12,0000.10,-000.08,27.8,00.0,0659.2,34.9
2016-10-22T01:54:00Z,0000380,01000600,0001.52,0000.84,0000.86,-000.32,0000.21,0000.05,0000.00,0000.11,-000.10,27.8,00.0,0659.2,34.9
2016-10-22T01:55:00Z,0000380,01000600,0001.79,0001.19,0001.65,0000.23,0000.26,0000.47,-000.14,0000.07,0000.37,27.9,00.0,0659.2,34.9
2016-10-22T01:56:00Z,0000380,01000600,0001.46,0001.74,0000.98,0000.43,0000.02,0000.23,0000.18,-000.04,0000.04,27.9,00.0,0659.2,34.9
2016-10-22T01:57:00Z,0000380,41000600,,,,,,,,,,,,0659.3,34.9
2016-10-22T01:58:00Z,0000380,61000600,,,,,,,,,,27.9,00.0,0658.3,34.9
2016-10-22T01:59:00Z,0000380,21000600,,,,,,,,,,28.0,00.0,0658.2,34.9
2016-10-22T02:00:00Z,0000380,21000600,,,,,,,,,,28.0,00.0,0658.2,34.9
2016-10-22T02:01:00Z,0000380,21000600,,,,,,,,,,28.0,00.0,0658.3,34.9
2016-10-22T02:02:00Z,0000380,21000600,,,,,,,,,,28.0,00.0,0658.3,34.9
2016-10-22T02:03:00Z,0000380,61000600,,,,,,,,,,28.0,00.0,0658.3,34.9
2016-10-22T02:04:00Z,0000380,41000600,0000.94,0002.54,0002.21,0000.56,0000.64,-000.11,-000.00,0000.12,0000.19,28.1,00.0,0659.3,34.9
2016-10-22T02:05:00Z,0000380,01000600,0002.12,0001.35,0001.25,0000.34,0000.40,-000.15,0000.15,0000.05,-000.04,28.1,00.0,0659.4,34.9
2016-10-22T02:06:00Z,0000380,01000600,0001.52,0002.56,0001.18,-000.19,0000.34,-000.81,0000.17,0000.04,-000.08,28.2,00.0,0659.4,34.9
2016-10-22T02:07:00Z,0000380,01000600,0003.52,0002.09,0001.44,0000.48,0000.51,-000.24,0000.18,0000.22,0000.28,28.2,00.0,0659.5,34.9
2016-10-22T02:08:00Z,0000380,01000600,0001.39,0001.27,0000.71,-000.15,0000.11,-000.34,0000.06,-000.05,-000.09,28.2,00.0,0659.4,34.9
2016-10-22T02:09:00Z,0000380,01000600,0001.57,0001.58,0001.21,-000.05,0000.45,-000.29,0000.16,0000.41,0000.13,28.2,00.0,0659.4,34.9
2016-10-22T02:10:00Z,0000380,01000600,0001.71,0001.71,0001.11,0000.37,0000.32,-000.05,0000.14,-000.09,0000.08,28.2,00.0,0659.4,34.9
2016-10-22T02:11:00Z,0000380,01000600,0000.50,0001.55,0001.61,0000.73,0000.55,-000.02,-000.22,0000.17,-000.07,28.2,00.0,0659.4,34.9
2016-10-22T02:12:00Z,0000380,01000600,0001.84,0001.06,0001.51,0000.87,-000.02,-000.08,0000.10,-000.01,-000.13,28.3,00.0,0659.4,34.9
2016-10-22T02:13:00Z,0000380,01000600,0002.44,0001.82,0001.00,0000.10,0000.55,0000.21,0000.04,-000.04,0000.29,28.3,00.0,0659.3,34.9
2016-10-22T02:14:00Z,0000380,01000600,0001.16,0002.20,0000.92,-000.21,0000.19,0000.11,-000.04,-000.17,-000.07,28.3,00.0,0659.4,34.9
2016-10-22T02:15:00Z,0000380,01000600,0002.36,0001.14,0001.44,-000.66,0000.27,0000.15,-000.03,0000.00,-000.07,28.3,00.0,0659.4,34.9
2016-10-22T02:16:00Z,0000380,01000600,0002.41,0001.24,0001.23,-000.31,0000.24,-000.26,-000.09,-000.17,-000.07,28.3,00.0,0659.4,34.9
2016-10-22T02:17:00Z,0000380,01000600,0001.98,0001.71,0001.13,0000.63,0000.37,0000.06,0000.04,0000.01,-000.47,28.3,00.0,0659.4,34.9
2016-10-22T02:18:00Z,0000380,01000600,0000.93,0001.83,0001.81,0000.00,0000.19,0000.03,0000.01,-000.06,0000.02,28.3,00.0,0659.4,34.9
2016-10-22T02:19:00Z,0000380,01000600,0001.55,0001.43,0000.83,0000.02,0000.10,-000.60,-000.02,0000.05,0000.47,28.2,00.0,0659.5,34.9
2016-10-22T02:20:00Z,0000380,01000600,0002.31,0001.92,0001.98,0000.23,0000.14,-000.23,0000.11,0000.11,-000.24,28.2,00.0,0659.5,34.9
2016-10-22T02:21:00Z,0000380,01000600,0001.15,0001.22,0001.30,0000.60,0000.13,0000.03,0000.16,-000.01,0000.17,28.2,00.0,0659.5,34.9
2016-10-22T02:22:00Z,0000380,01000600,0001.88,0001.75,0000.75,0000.19,0000.35,-000.10,-000.07,0000.12,0000.13,28.2,00.0,0659.5,34.9
2016-10-22T02:23:00Z,0000380,01000600,0001.11,0001.77,0001.91,0000.42,0000.69,-000.11,0000.02,0000.07,-000.09,28.2,00.0,0659.5,34.9
2016-10-22T02:24:00Z,0000380,01000600,0000.80,0002.36,0001.19,0000.13,0000.80,-000.10,0000.24,0000.09,0000.15,28.2,00.0,0659.5,34.9
2016-10-22T02:25:00Z,0000380,01000600,0000.75,0001.39,0001.24,0000.74,0000.19,-000.02,0000.22,0000.21,-000.09,28.2,00.0,0659.6,34.9
2016-10-22T02:26:00Z,0000380,01000600,0001.28,0002.23,0001.85,0000.44,0000.48,0000.45,-000.02,0000.03,0000.11,28.2,00.0,0659.5,34.9
2016-10-22T02:27:00Z,0000380,01000600,0001.54,0001.80,0000.92,0000.10,0000.56,-000.52,0000.04,-000.08,-000.08,28.2,00.0,0659.5,34.9
2016-10-22T02:28:00Z,0000380,01000600,0002.29,0001.34,0001.37,0000.27,0000.37,-000.13,0000.03,-000.07,-000.10,28.2,00.0,0659.5,34.9
2016-10-22T02:29:00Z,0000380,01000600,0001.74,0001.84,0001.23,0000.50,0000.53,-000.60,0000.07,0000.09,0000.27,28.1,00.0,0659.5,34.9
2016-10-22T02:30:00Z,0000380,01000600,0001.51,0002.04,0001.49,0000.02,0000.48,-000.21,-000.02,0000.19,-000.07,28.1,00.0,0659.5,34.7
2016-10-22T02:31:00Z,0000380,01000600,0000.97,0001.54,0001.56,0000.19,0000.66,-000.16,0000.24,-000.03,-000.06,28.0,00.0,0659.5,34.7
2016-10-22T02:32:00Z,0000380,01000600,0001.85,0001.60,0001.32,0000.34,0000.27,-000.47,0000.11,0000.04,0000.30,28.0,00.0,0659.5,34.7
2016-10-22T02:33:00Z,0000380,01000600,0002.47,0001.63,0001.47,0000.26,0000.95,0000.26,-000.03,0000.01,-000.08,27.9,00.0,0659.4,34.7
2016-10-22T02:34:00Z,0000380,01000600,0001.58,0001.71,0001.28,0000.40,0000.21,-000.26,0000.08,0000.03,0000.03,27.9,00.0,0659.4,34.7
2016-10-22T02:35:00Z,0000380,01000600,0001.18,0002.15,0001.73,0000.08,0000.29,0000.15,0000.05,-000.04,0000.19,27.8,00.0,0659.4,34.7
2016-10-22T02:36:00Z,0000380,01000600,0003.64,0001.73,0000.95,0000.00,0000.35,-000.05,0000.00,0000.22,-000.29,27.8,00.0,0659.4,34.7
2016-10-22T02:37:00Z,0000380,01000600,0000.69,0001.40,0000.76,0000.47,0000.26,-000.29,0000.15,0000.25,0000.31,27.8,00.0,0659.4,34.7
2016-10-22T02:38:00Z,0000380,01000600,0001.06,0001.47,0001.04,0000.66,0000.27,-000.52,-000.02,-000.07,0000.03,27.8,00.0,0659.4,34.7
2016-10-22T02:39:00Z,0000380,01000600,0001.96,0001.73,0001.81,0000.23,0000.24,-000.32,0000.04,0000.03,0000.13,27.8,00.0,0659.4,34.7
2016-10-22T02:40:00Z,0000380,01000600,0001.24,0001.17,0001.56,-000.03,-000.10,0000.00,0000.31,0000.08,0000.14,27.8,00.0,0659.5,34.7
2016-10-22T02:41:00Z,0000380,01000600,0001.44,0001.01,0001.55,0000.50,0000.30,-000.05,-000.03,0000.06,-000.43,27.9,00.0,0659.4,34.7
2016-10-22T02:42:00Z,0000380,01000600,0001.75,0002.23,0001.31,0000.02,-000.02,-000.24,0000.06,0000.13,0000.55,27.9,00.0,0659.5,34.7
2016-10-22T02:43:00Z,0000380,01000600,0002.26,0001.94,0001.47,0000.26,-000.10,-000.16,0000.01,-000.12,-000.29,27.8,00.0,0659.5,34.7
2016-10-22T02:44:00Z,0000380,01000600,0002.04,0001.58,0001.20,0000.90,0000.69,-000.08,0000.07,0000.18,-000.22,27.8,00.0,0659.5,34.7
2016-10-22T02:45:00Z,0000380,01000600,0001.91,0001.60,0001.30,0000.79,0000.69,-000.34,0000.10,-000.02,0000.10,27.8,00.0,0659.5,34.7
2016-10-22T02:46:00Z,0000380,01000600,0001.45,0001.74,0001.18,0000.40,0000.51,-000.03,-000.10,0000.27,0000.27,27.7,00.0,0659.5,34.7
2016-10-22T02:47:00Z,0000380,01000600,0001.11,0001.27,0001.38,0000.08,0000.43,-000.35,0000.08,-000.31,0000.04,27.7,00.0,0659.5,34.7
2016-10-22T02:48:00Z,0000380,01000600,0001.27,0002.28,0001.43,-000.42,0000.27,-000.14,0000.10,0000.12,0000.17,27.7,00.0,0659.5,34.7
2016-10-22T02:49:00Z,0000380,01000600,0000.51,0001.68,0001.83,0000.02,0000.51,-000.05,0000.05,0000.10,-000.06,27.6,00.0,0659.6,34.7
2016-10-22T02:50:00Z,0000380,01000600,0000.31,0001.89,0001.41,-000.03,0000.29,-000.02,0000.35,0000.08,0000.19,27.7,00.0,0659.6,34.7
2016-10-22T02:51:00Z,0000380,01000600,0001.39,0002.13,0001.10,0000.56,0000.30,-000.14,0000.20,-000.01,-000.18,27.6,00.0,0659.6,34.7
2016-10-22T02:52:00Z,0000380,01000600,0001.51,0002.23,0000.73,-000.13,0000.26,-000.11,-000.13,0000.21,-000.01,27.6,00.0,0659.6,34.7
2016-10-22T02:53:00Z,0000380,01000600,0002.32,0001.74,0001.26,0000.80,0000.42,-000.03,0000.19,0000.05,0000.34,27.7,00.0,0659.6,34.7
2016-10-22T02:54:00Z,0000380,01000600,0001.06,0001.68,0000.71,0000.42,0000.08,-000.48,0000.05,0000.05,0000.04,27.7,00.0,0659.6,34.7
2016-10-22T02:55:00Z,0000380,01000600,0002.85,0001.68,0001.14,-000.18,0000.38,0000.18,-000.26,-000.08,-000.06,27.7,00.0,0659.7,34.7
2016-10-22T02:56:00Z,0000380,01000600,0001.12,0001.88,0001.45,0000.02,0000.54,-000.13,0000.22,0000.13,-000.10,27.7,00.0,0659.7,34.7
2016-10-22T02:57:00Z,0000380,41000600,,,,,,,,,,,,0659.8,34.7
2016-10-22T02:58:00Z,0000380,61000600,,,,,,,,,,27.5,00.0,0658.7,34.7
2016-10-22T02:59:00Z,0000380,21000600,,,,,,,,,,27.5,00.0,0658.7,34.7
2016-10-22T03:00:00Z,0000380,21000600,,,,,,,,,,27.5,00.0,0658.7,34.7
2016-10-22T03:01:00Z,0000380,21000600,,,,,,,,,,27.5,00.0,0658.7,34.7
2016-10-22T03:02:00Z,0000380,21000600,,,,,,,,,,27.5,00.0,0658.7,34.7
2016-10-22T03:03:00Z,0000380,61000600,,,,,,,,,,27.6,00.0,0658.7,34.7
2016-10-22T03:04:00Z,0000380,41000600,0001.32,0001.88,0001.03,0001.21,-000.18,0000.18,0000.12,0000.07,0000.24,27.5,00.0,0659.6,34.7
2016-10-22T03:05:00Z,0000380,01000600,0000.93,0000.93,0000.99,0001.00,0000.34,0000.26,0000.32,0000.26,-000.03,27.5,00.0,0659.8,34.7
2016-10-22T03:06:00Z,0000380,01000600,0001.36,0001.22,0001.02,-000.11,0000.24,0000.11,0000.07,0000.01,0000.12,27.5,00.0,0659.8,34.7
2016-10-22T03:07:00Z,0000380,01000600,0001.57,0001.24,0000.76,0000.16,-000.11,-000.08,0000.09,0000.07,0000.10,27.5,00.0,0659.7,34.7
2016-10-22T03:08:00Z,0000380,01000600,0000.76,0001.36,0001.19,0000.96,0000.21,0000.27,0000.08,0000.15,0000.07,27.5,00.0,0659.7,34.7
2016-10-22T03:09:00Z,0000380,01000600,0001.04,0001.93,0001.03,0000.71,-000.19,-000.02,-000.05,0000.11,0000.16,27.5,00.0,0659.7,34.7
2016-10-22T03:10:00Z,0000380,01000600,0000.85,0001.18,0000.45,0000.34,-000.05,0000.13,0000.33,0000.22,0000.06,27.5,00.0,0659.7,34.7
2016-10-22T03:11:00Z,0000380,01000600,0001.44,0001.60,0001.42,0000.87,0000.43,0000.14,0000.17,0000.08,0000.10,27.6,00.0,0659.6,34.7
2016-10-22T03:12:00Z,0000380,01000600,0001.82,0002.30,0000.92,0000.61,0000.11,0000.37,0000.08,0000.04,-000.10,27.5,00.0,0659.7,34.7